DW6615 Weather Reports


time (UTC)temp
C
wind
direction
speed
KPH
gust
KPH
rain 1hr
cm
rain 24hr
cm
rain mn
cm
humidity
%
barometer
mb
20260507010842 13 348 1.6 6.4 0.00 2.08 2.08 94 1009.3
20260507010351 13 317 3.2 6.4 0.00 2.08 2.08 94 1009.4
20260507010106 13 306 3.2 11.3 0.00 2.08 2.08 94 1008.8
20260507005853 14 281 3.2 11.3 0.00 2.08 2.08 94 1009.3
20260507005341 15 297 4.8 11.3 0.00 2.08 2.08 94 1009.0
20260507004847 15 280 4.8 11.3 0.00 2.08 2.08 96 1008.9
20260507004616 15 296 3.2 6.4 0.00 2.08 2.08 97 1008.4
20260507004340 16 322 1.6 6.4 0.00 2.08 2.08 98 1008.6
20260507003847 16 209 0.0 3.2 0.03 2.08 2.08 98 1008.4
20260507003339 16 209 0.0 3.2 0.18 2.08 2.08 98 1008.3
20260507003125 15 209 0.0 3.2 0.25 2.08 2.08 98 1007.7
20260507002844 16 209 0.0 3.2 0.41 2.08 2.08 98 1008.2
20260507002415 16 209 0.0 3.2 0.66 2.08 2.08 97 1008.1
20260507001838 16 198 0.0 4.8 0.91 2.08 2.08 97 1008.0
20260507001604 15 198 0.0 4.8 0.97 2.08 2.08 97 1007.4
20260507001341 16 208 1.6 4.8 1.14 2.08 2.08 97 1008.0
20260507000849 16 188 1.6 6.4 1.22 2.08 2.08 97 1007.9
20260507000421 16 195 3.2 6.4 1.22 2.08 2.08 97 1007.9
20260507000110 15 197 0.0 6.4 1.22 2.08 2.08 97 1007.3
20260506235912 16 199 1.6 6.4 1.22 2.08 2.08 97 1007.9
20260506235342 16 212 1.6 4.8 1.22 2.08 2.08 97 1007.8
20260506234848 16 267 1.6 6.4 1.22 2.08 2.08 96 1007.6
20260506234616 15 259 0.0 6.4 1.22 2.08 2.08 96 1007.0
20260506234358 16 193 1.6 6.4 1.22 2.08 2.08 96 1007.7
20260506233839 16 227 0.0 11.3 1.19 2.06 2.06 95 1007.7
20260506233350 16 262 3.2 11.3 1.04 1.91 1.91 95 1007.7
20260506233108 16 154 3.2 11.3 0.94 1.80 1.80 95 1007.1
20260506232912 16 224 6.4 11.3 0.81 1.68 1.68 94 1007.8
20260506232340 17 269 4.8 8.0 0.53 1.40 1.40 94 1007.7
20260506231840 17 256 3.2 6.4 0.30 1.17 1.17 94 1007.7
20260506231609 17 276 1.6 4.8 0.20 1.07 1.07 94 1006.9
20260506231347 17 296 1.6 3.2 0.05 0.91 0.94 93 1007.4
20260506230850 17 342 1.6 3.2 0.00 0.86 0.86 92 1007.2
20260506230356 17 233 0.0 3.2 0.00 0.86 0.86 92 1007.2
20260506230116 17 192 0.0 3.2 0.00 0.86 0.86 92 1006.5
20260506225856 17 202 0.0 3.2 0.00 0.86 0.86 92 1007.1
20260506225338 17 204 0.0 3.2 0.00 0.86 0.86 92 1007.1
20260506224842 17 231 0.0 3.2 0.00 0.86 0.86 92 1007.1
20260506224609 17 276 0.0 3.2 0.00 0.86 0.86 92 1006.5
20260506224346 17 278 1.6 4.8 0.00 0.86 0.86 92 1007.2
20260506223915 17 249 1.6 6.4 0.00 0.86 0.86 92 1007.3
20260506223119 17 218 1.6 6.4 0.00 0.86 0.86 92 1006.6
20260506222840 17 277 1.6 6.4 0.00 0.86 0.86 92 1007.2
20260506222351 17 199 0.0 6.4 0.00 0.86 0.86 92 1007.2
20260506221856 17 232 1.6 6.4 0.00 0.86 0.86 92 1007.1
20260506221620 17 280 1.6 6.4 0.00 0.86 0.86 92 1006.4
20260506221343 17 287 1.6 6.4 0.00 0.86 0.86 93 1007.1
20260506220843 17 257 1.6 9.7 0.00 0.86 0.86 93 1007.0
20260506220356 17 219 3.2 11.3 0.00 0.86 0.86 93 1006.9
20260506220116 17 246 1.6 6.4 0.00 0.86 0.86 94 1006.3
20260506215838 17 251 1.6 6.4 0.00 0.86 0.86 94 1007.0
20260506215410 17 193 3.2 6.4 0.00 0.86 0.86 94 1007.0
20260506214854 17 264 0.0 6.4 0.00 0.86 0.86 94 1007.0
20260506214505 17 267 1.6 6.4 0.00 0.86 0.86 94 1006.3
20260506214403 17 190 1.6 4.8 0.00 0.86 0.86 94 1007.0
20260506213848 17 247 1.6 4.8 0.00 0.86 0.86 94 1006.9
20260506213339 17 210 0.0 6.4 0.00 0.86 0.86 95 1006.9
20260506213104 17 204 0.0 6.4 0.00 0.86 0.86 94 1006.2
20260506212846 17 241 3.2 8.0 0.00 0.86 0.86 94 1006.7
20260506212416 17 206 1.6 8.0 0.00 0.86 0.86 95 1006.6
20260506211837 17 241 3.2 8.0 0.00 0.86 0.86 95 1006.6
20260506211604 17 231 1.6 8.0 0.00 0.86 0.86 95 1006.0
20260506211347 17 227 3.2 8.0 0.00 0.86 0.86 95 1006.6
20260506210855 17 209 3.2 6.4 0.00 0.86 0.86 96 1006.6
20260506210345 17 204 1.6 8.0 0.00 0.86 0.86 96 1006.5
20260506210110 16 212 1.6 8.0 0.00 0.86 0.86 96 1005.9
20260506205850 17 251 1.6 8.0 0.00 0.86 0.86 96 1006.6
20260506205358 16 218 0.0 6.4 0.00 0.86 0.86 96 1006.6
20260506204846 16 218 3.2 6.4 0.00 0.86 0.86 96 1006.5
20260506204633 16 191 1.6 6.4 0.00 0.86 0.86 96 1005.9
20260506204340 16 208 1.6 8.0 0.00 0.86 0.86 96 1006.6
20260506203847 16 215 1.6 9.7 0.00 0.86 0.86 96 1006.7
20260506203357 16 201 3.2 9.7 0.00 0.86 0.86 96 1006.6
20260506203111 16 180 1.6 8.0 0.00 0.86 0.86 96 1006.0
20260506202859 16 246 3.2 6.4 0.00 0.86 0.86 96 1006.6
20260506202347 16 249 1.6 6.4 0.00 0.86 0.86 96 1006.6
20260506201854 16 200 1.6 6.4 0.00 0.86 0.86 96 1006.6
20260506201619 16 218 1.6 6.4 0.00 0.86 0.86 96 1005.9
20260506201344 16 258 0.0 9.7 0.00 0.86 0.86 96 1006.6
20260506200914 16 204 1.6 11.3 0.00 0.86 0.86 96 1006.6
20260506200405 16 268 3.2 9.7 0.00 0.86 0.86 96 1006.6
20260506200124 16 247 1.6 11.3 0.00 0.86 0.86 96 1006.0
20260506195848 16 198 3.2 11.3 0.00 0.86 0.86 96 1006.6
20260506195357 16 255 3.2 11.3 0.00 0.86 0.86 97 1006.6
20260506194900 16 227 1.6 9.7 0.00 0.86 0.86 97 1006.7
20260506194622 15 249 3.2 9.7 0.00 0.86 0.86 97 1006.0
20260506194350 16 223 3.2 9.7 0.00 0.86 0.86 97 1006.7
20260506193854 16 197 1.6 8.0 0.00 0.86 0.86 97 1006.7
20260506193344 16 192 3.2 8.0 0.00 0.86 0.86 97 1006.7
20260506193123 15 256 1.6 8.0 0.00 0.86 0.86 97 1006.0
20260506192850 16 243 3.2 9.7 0.00 0.86 0.86 98 1006.7
20260506192358 15 225 3.2 9.7 0.00 0.86 0.86 98 1006.7
20260506191840 15 216 3.2 12.9 0.00 0.86 0.86 98 1006.7
20260506191604 15 227 1.6 12.9 0.03 0.86 0.86 98 1006.1
20260506191410 15 238 4.8 12.9 0.03 0.86 0.86 98 1006.8
20260506190849 15 247 3.2 8.0 0.03 0.86 0.86 98 1006.8
20260506190357 15 244 1.6 6.4 0.03 0.86 0.86 98 1007.0
20260506190111 15 241 1.6 6.4 0.03 0.86 0.86 98 1006.3
20260506185854 15 239 1.6 8.0 0.05 0.86 0.86 98 1007.0
20260506185406 15 203 3.2 9.7 0.05 0.86 0.86 98 1007.0
20260506184850 15 206 3.2 9.7 0.08 0.86 0.86 98 1007.1
20260506184611 15 202 1.6 9.7 0.08 0.86 0.86 98 1006.5
20260506184357 15 188 1.6 8.0 0.10 0.86 0.86 98 1007.2
20260506183839 15 203 3.2 11.3 0.10 0.86 0.86 98 1007.3
20260506183411 15 220 4.8 11.3 0.10 0.86 0.86 98 1007.3
20260506183012 15 204 1.6 8.0 0.10 0.86 0.86 98 1006.6
20260506182910 15 256 1.6 8.0 0.10 0.86 0.86 98 1007.4
20260506182337 15 238 3.2 14.5 0.13 0.86 0.86 98 1007.3
20260506181845 15 185 1.6 14.5 0.13 0.86 0.86 98 1007.5
20260506181607 15 175 1.6 14.5 0.10 0.84 0.84 98 1006.8
20260506181348 15 239 3.2 9.7 0.13 0.84 0.84 98 1007.5
20260506180853 15 176 3.2 9.7 0.13 0.84 0.84 98 1007.5
20260506180343 15 160 1.6 9.7 0.15 0.84 0.84 98 1007.5
20260506180121 15 179 1.6 9.7 0.15 0.84 0.84 98 1006.7
20260506175846 15 260 3.2 8.0 0.15 0.81 0.81 98 1007.6
20260506175356 15 266 1.6 9.7 0.20 0.81 0.81 98 1007.6
20260506174843 15 195 1.6 9.7 0.18 0.79 0.79 97 1007.6
20260506174610 15 261 3.2 8.0 0.18 0.79 0.79 97 1006.9
20260506174353 15 187 3.2 11.3 0.18 0.76 0.76 97 1007.6
20260506173841 15 233 3.2 11.3 0.23 0.76 0.76 97 1007.6
20260506173352 15 182 4.8 14.5 0.23 0.76 0.76 97 1007.6
20260506173112 15 228 3.2 14.5 0.23 0.76 0.76 97 1006.7
20260506172916 15 215 6.4 14.5 0.20 0.74 0.74 97 1007.5
20260506172345 15 192 4.8 11.3 0.20 0.74 0.74 97 1007.5
20260506171850 15 177 4.8 11.3 0.23 0.74 0.74 97 1007.6
20260506171619 15 228 3.2 11.3 0.23 0.71 0.71 97 1006.7
20260506171339 15 187 4.8 17.7 0.20 0.71 0.71 97 1007.5
20260506170846 15 164 1.6 17.7 0.20 0.71 0.71 97 1007.6
20260506170355 15 188 3.2 14.5 0.18 0.69 0.69 97 1007.7
20260506170113 15 187 3.2 17.7 0.18 0.69 0.69 96 1006.9
20260506165855 15 210 4.8 17.7 0.18 0.66 0.66 96 1007.8
20260506165345 15 197 8.0 17.7 0.13 0.61 0.61 96 1007.8
20260506164854 15 194 4.8 16.1 0.13 0.61 0.61 96 1007.7
20260506164621 15 151 3.2 16.1 0.13 0.58 0.58 96 1006.9
20260506164343 15 188 1.6 16.1 0.13 0.58 0.58 96 1007.8
20260506163356 15 173 4.8 12.9 0.10 0.53 0.53 96 1007.9
20260506163109 15 180 4.8 16.1 0.13 0.53 0.53 96 1007.1
20260506162850 15 223 4.8 16.1 0.15 0.53 0.53 96 1007.9
20260506162359 15 206 6.4 16.1 0.18 0.53 0.53 96 1007.8
20260506161845 15 221 4.8 17.7 0.18 0.51 0.51 96 1007.8
20260506161614 15 187 4.8 19.3 0.20 0.51 0.51 96 1007.0
20260506161417 15 158 3.2 14.5 0.23 0.51 0.51 96 1007.7
20260506160905 15 200 6.4 14.5 0.25 0.51 0.51 96 1007.7
20260506160355 15 186 6.4 17.7 0.25 0.51 0.51 96 1007.7
20260506160116 15 168 3.2 17.7 0.25 0.51 0.51 96 1006.8
20260506155355 15 139 8.0 17.7 0.23 0.48 0.48 96 1007.6
20260506154844 15 192 6.4 14.5 0.25 0.48 0.48 96 1007.8
20260506154618 15 163 4.8 14.5 0.23 0.46 0.46 96 1007.1
20260506154354 15 190 6.4 14.5 0.23 0.46 0.46 96 1008.1
20260506153845 15 233 4.8 16.1 0.23 0.43 0.43 96 1008.3
20260506153354 15 206 3.2 16.1 0.23 0.43 0.43 95 1008.4
20260506153001 15 189 3.2 14.5 0.20 0.41 0.41 95 1007.8
20260506152901 15 187 4.8 14.5 0.20 0.38 0.38 95 1008.6
20260506152410 15 177 4.8 12.9 0.18 0.36 0.36 95 1008.7
20260506151838 15 219 4.8 19.3 0.18 0.33 0.33 95 1008.8
20260506151605 15 197 6.4 19.3 0.15 0.30 0.30 94 1008.0
20260506151410 15 166 4.8 19.3 0.15 0.28 0.28 94 1008.7
20260506150855 16 156 6.4 20.9 0.13 0.25 0.25 94 1008.8
20260506150341 16 109 8.0 11.3 0.15 0.25 0.25 94 1008.7
20260506150125 15 177 3.2 17.7 0.15 0.25 0.25 94 1007.9
20260506145845 16 190 6.4 17.7 0.15 0.25 0.25 94 1008.6
20260506145415 16 220 8.0 17.7 0.13 0.23 0.25 94 1008.4
20260506144843 16 190 4.8 12.9 0.13 0.23 0.23 94 1008.5
20260506144611 15 187 1.6 9.7 0.15 0.23 0.23 95 1007.7
20260506144351 16 174 3.2 11.3 0.15 0.23 0.23 95 1008.6
20260506143839 16 172 3.2 11.3 0.13 0.20 0.20 94 1008.5
20260506143350 16 203 3.2 9.7 0.13 0.20 0.20 94 1008.4
20260506143108 15 192 1.6 9.7 0.13 0.20 0.20 94 1007.6
20260506142854 16 185 1.6 9.7 0.10 0.18 0.18 94 1008.3
20260506142358 16 207 1.6 12.9 0.10 0.18 0.18 93 1008.5
20260506141844 16 185 3.2 12.9 0.10 0.15 0.15 93 1008.6
20260506141606 15 204 3.2 12.9 0.10 0.15 0.15 93 1007.9
20260506141351 16 184 3.2 9.7 0.08 0.13 0.13 93 1008.7
20260506140847 16 216 3.2 9.7 0.08 0.13 0.13 93 1008.7
20260506140127 15 187 3.2 9.7 0.08 0.10 0.10 92 1007.8
20260506135850 16 208 3.2 9.7 0.08 0.10 0.10 92 1008.6
20260506135339 16 224 3.2 8.0 0.08 0.10 0.10 92 1008.6
20260506134843 16 198 3.2 8.0 0.08 0.10 0.10 92 1008.4
20260506134606 16 196 1.6 8.0 0.05 0.08 0.08 92 1007.6
20260506134353 16 184 3.2 11.3 0.08 0.08 0.08 92 1008.4
20260506133856 16 175 3.2 11.3 0.08 0.08 0.08 92 1008.6
20260506133348 16 187 3.2 8.0 0.08 0.08 0.08 92 1008.7
20260506133110 16 197 1.6 8.0 0.08 0.08 0.08 92 1007.9
20260506132852 16 201 3.2 8.0 0.08 0.08 0.08 92 1008.8
20260506132358 16 175 3.2 8.0 0.08 0.08 0.08 91 1008.8
20260506131854 16 152 1.6 6.4 0.05 0.05 0.05 91 1008.8
20260506131622 16 240 1.6 6.4 0.05 0.05 0.05 91 1008.1
20260506131344 16 199 3.2 8.0 0.05 0.05 0.05 91 1008.9
20260506130848 16 191 1.6 8.0 0.05 0.05 0.05 90 1009.0
20260506130357 16 212 1.6 4.8 0.03 0.03 0.03 90 1008.9
20260506130119 16 187 0.0 8.0 0.03 0.03 0.03 90 1008.1
20260506125841 16 175 1.6 8.0 0.03 0.03 0.03 90 1008.9
20260506125349 16 221 3.2 8.0 0.03 0.03 0.03 89 1009.0
20260506124614 16 179 1.6 6.4 0.03 0.03 0.03 88 1008.2
20260506123402 17 205 3.2 8.0 0.00 0.00 0.00 86 1009.0
20260506123124 16 182 1.6 8.0 0.00 0.00 0.00 86 1008.1
20260506122846 17 197 3.2 8.0 0.00 0.00 0.00 86 1008.7
20260506122356 17 213 3.2 11.3 0.00 0.00 0.00 85 1008.8
20260506121838 17 227 3.2 11.3 0.00 0.00 0.00 85 1008.7
20260506121608 17 164 1.6 8.0 0.00 0.00 0.00 84 1007.9
20260506121348 17 207 3.2 11.3 0.00 0.00 0.00 84 1008.6
20260506120402 17 202 3.2 14.5 0.00 0.00 0.00 82 1008.5
20260506120124 17 234 4.8 14.5 0.00 0.00 0.00 82 1007.8
20260506115845 17 141 4.8 14.5 0.00 0.00 0.00 81 1008.7
20260506115351 17 245 4.8 14.5 0.00 0.00 0.00 80 1008.6
20260506114847 17 190 6.4 16.1 0.00 0.00 0.00 80 1008.6
20260506114613 17 210 3.2 9.7 0.00 0.00 0.00 80 1007.9
20260506114350 17 192 4.8 12.9 0.00 0.00 0.00 80 1008.6
20260506113840 17 175 526.3 526.3 0.00 0.00 0.00 80 1008.4
20260506113354 17 241 6.4 16.1 0.00 0.00 0.00 80 1008.4
20260506113116 17 177 3.2 14.5 0.00 0.00 0.00 80 1007.7
20260506112856 17 194 6.4 14.5 0.00 0.00 0.00 80 1008.5
20260506112357 17 183 6.4 24.1 0.00 0.00 0.00 80 1008.5
20260506111845 17 172 6.4 24.1 0.00 0.00 0.00 80 1008.6
20260506111611 17 195 8.0 24.1 0.00 0.00 0.00 79 1007.9
20260506111413 17 162 4.8 22.5 0.00 0.00 0.00 79 1008.6
20260506110855 17 191 6.4 22.5 0.00 0.00 0.00 79 1008.6
20260506110345 17 177 6.4 17.7 0.00 0.00 0.00 79 1008.6
20260506110007 17 219 4.8 17.7 0.00 0.00 0.00 79 1007.7
20260506105906 17 199 6.4 17.7 0.00 0.00 0.00 79 1008.4
20260506105349 17 149 4.8 17.7 0.00 0.00 0.00 79 1008.3
20260506104837 17 196 8.0 17.7 0.00 0.00 0.00 78 1008.2
20260506104605 17 143 6.4 19.3 0.00 0.00 0.00 78 1007.3
20260506104347 17 170 9.7 17.7 0.00 0.00 0.00 78 1008.1
20260506103838 17 191 4.8 14.5 0.00 0.00 0.00 78 1008.1
20260506103350 17 162 6.4 16.1 0.00 0.00 0.00 78 1008.0
20260506103109 17 218 3.2 16.1 0.00 0.00 0.00 78 1007.2
20260506102908 17 166 4.8 16.1 0.00 0.00 0.00 78 1007.9
20260506102418 17 179 6.4 17.7 0.00 0.00 0.00 78 1008.0
20260506101904 17 154 4.8 14.5 0.00 0.00 0.00 78 1007.9
20260506101609 17 193 3.2 14.5 0.00 0.00 0.00 78 1007.1
20260506101349 17 194 3.2 14.5 0.00 0.00 0.00 78 1007.9
20260506100851 17 162 3.2 17.7 0.00 0.00 0.00 77 1008.0
20260506100352 17 198 6.4 17.7 0.00 0.00 0.00 77 1008.0
20260506100110 17 200 3.2 11.3 0.00 0.00 0.00 77 1007.1
20260506095850 17 192 3.2 11.3 0.00 0.00 0.00 77 1008.0
20260506095350 17 172 3.2 11.3 0.00 0.00 0.00 77 1008.1
20260506094852 17 220 3.2 11.3 0.00 0.00 0.00 76 1008.1
20260506094614 17 168 6.4 11.3 0.00 0.00 0.00 76 1007.2
20260506094352 17 187 4.8 12.9 0.00 0.00 0.00 76 1008.1
20260506093849 17 176 1.6 11.3 0.00 0.00 0.00 76 1008.2
20260506093351 18 199 1.6 11.3 0.00 0.00 0.00 75 1008.0
20260506093112 17 166 1.6 14.5 0.00 0.00 0.00 75 1007.2
20260506092847 18 190 4.8 14.5 0.00 0.00 0.00 75 1008.0
20260506092348 18 152 4.8 14.5 0.00 0.00 0.00 75 1008.0
20260506091847 18 204 1.6 11.3 0.00 0.00 0.00 74 1008.1
20260506091610 17 143 3.2 11.3 0.00 0.00 0.00 74 1007.3
20260506091349 18 202 3.2 11.3 0.00 0.00 0.00 74 1008.1
20260506090914 18 225 4.8 16.1 0.00 0.00 0.00 74 1008.1
20260506090355 18 194 4.8 16.1 0.00 0.00 0.00 73 1008.0
20260506090117 18 178 3.2 9.7 0.00 0.00 0.00 73 1007.3
20260506085851 18 193 3.2 9.7 0.00 0.08 0.00 73 1008.1
20260506085351 18 191 3.2 8.0 0.00 0.08 0.00 73 1008.1
20260506084853 18 168 3.2 8.0 0.00 0.08 0.00 72 1008.1
20260506084617 18 193 3.2 11.3 0.00 0.08 0.00 72 1007.5
20260506084355 18 197 3.2 16.1 0.00 0.08 0.00 72 1008.2
20260506083839 18 203 3.2 16.1 0.00 0.08 0.00 72 1008.2
20260506083344 18 208 4.8 9.7 0.00 0.08 0.00 71 1008.2
20260506083105 18 187 1.6 12.9 0.00 0.08 0.00 71 1007.4
20260506082906 18 235 3.2 12.9 0.00 0.08 0.00 71 1008.2
20260506082408 18 187 6.4 12.9 0.00 0.08 0.00 71 1008.2
20260506081844 18 166 3.2 8.0 0.00 0.08 0.00 70 1008.2
20260506081606 18 196 1.6 8.0 0.00 0.08 0.00 70 1007.5
20260506081347 18 183 3.2 11.3 0.00 0.08 0.00 70 1008.2
20260506080848 18 173 3.2 11.3 0.00 0.08 0.00 69 1008.2
20260506080117 18 154 1.6 9.7 0.00 0.08 0.00 69 1007.5
20260506073421 18 200 1.6 9.7 0.00 0.08 0.00 67 1008.3
20260506073114 18 209 3.2 9.7 0.00 0.08 0.00 66 1007.6
20260506072915 18 166 3.2 11.3 0.00 0.08 0.00 66 1008.3
20260506072356 19 136 3.2 11.3 0.00 0.08 0.00 66 1008.3
20260506071853 19 185 4.8 9.7 0.00 0.08 0.00 66 1008.3
20260506071618 18 167 0.0 11.3 0.00 0.08 0.00 66 1007.7
20260506071419 19 195 3.2 11.3 0.00 0.08 0.00 65 1008.5
20260506070837 19 197 3.2 11.3 0.00 0.08 0.00 65 1008.4
20260506070404 19 185 4.8 11.3 0.00 0.08 0.00 65 1008.5
20260506070125 18 187 3.2 11.3 0.00 0.08 0.00 65 1007.8
20260506062358 20 198 3.2 14.5 0.00 0.08 0.00 62 1008.7
20260506061857 20 179 3.2 14.5 0.00 0.08 0.00 62 1008.8
20260506061620 19 233 4.8 14.5 0.00 0.08 0.00 62 1008.1
20260506061357 19 202 1.6 9.7 0.00 0.08 0.00 63 1008.8
20260506060856 19 191 4.8 9.7 0.00 0.08 0.00 62 1008.9
20260506060358 19 143 4.8 9.7 0.00 0.08 0.00 62 1008.8
20260506060118 19 189 3.2 9.7 0.00 0.08 0.00 62 1008.2
20260506051354 20 208 1.6 9.7 0.00 0.08 0.00 60 1009.3
20260506050854 20 203 3.2 11.3 0.00 0.08 0.00 60 1009.3
20260506050356 20 202 4.8 11.3 0.00 0.08 0.00 60 1009.4
20260506050120 19 222 1.6 11.3 0.00 0.08 0.00 60 1008.6
20260506044854 19 192 3.2 9.7 0.00 0.08 0.00 60 1009.4
20260506044640 19 187 1.6 9.7 0.00 0.08 0.00 59 1008.6
20260506044357 19 219 3.2 9.7 0.00 0.08 0.00 59 1009.4
20260506043854 19 231 1.6 9.7 0.00 0.08 0.00 59 1009.4
20260506043358 19 192 3.2 9.7 0.00 0.08 0.00 59 1009.3
20260506043117 19 220 3.2 9.7 0.00 0.08 0.00 59 1008.6
20260506042918 19 196 3.2 9.7 0.00 0.08 0.00 59 1009.4
20260506042359 19 202 4.8 9.7 0.00 0.08 0.00 59 1009.3
20260506041838 19 189 3.2 11.3 0.00 0.08 0.00 59 1009.3
20260506041505 19 187 3.2 11.3 0.00 0.08 0.00 59 1008.7
20260506041401 19 224 3.2 11.3 0.00 0.08 0.00 59 1009.4
20260506040903 19 227 1.6 6.4 0.00 0.08 0.00 59 1009.4
20260506040404 19 204 1.6 8.0 0.00 0.08 0.00 59 1009.3
20260506040005 19 206 1.6 8.0 0.00 0.08 0.00 59 1008.6
20260506035902 19 241 3.2 8.0 0.00 0.08 0.08 59 1009.3
20260506034915 19 195 1.6 8.0 0.00 0.08 0.08 59 1009.3
20260506034612 19 191 3.2 8.0 0.00 0.08 0.08 59 1008.6
20260506034355 20 232 1.6 8.0 0.00 0.08 0.08 59 1009.4
20260506033856 20 195 1.6 8.0 0.00 0.08 0.08 58 1009.3
20260506033401 20 200 4.8 8.0 0.00 0.08 0.08 58 1009.4
20260506033115 20 184 1.6 6.4 0.00 0.08 0.08 58 1008.6
20260506032854 20 197 1.6 6.4 0.00 0.08 0.08 57 1009.3
20260506032339 20 197 1.6 6.4 0.00 0.08 0.08 57 1009.3
20260506031855 20 209 1.6 4.8 0.00 0.08 0.08 56 1009.3
20260506031620 20 272 0.0 6.4 0.00 0.08 0.08 56 1008.6
20260506031339 20 202 1.6 6.4 0.00 0.08 0.08 56 1009.3
20260506030839 20 204 3.2 8.0 0.00 0.08 0.08 55 1009.3
20260506030356 21 207 3.2 11.3 0.00 0.08 0.08 55 1009.3
20260506030109 20 251 1.6 11.3 0.00 0.08 0.08 55 1008.6
20260506025851 21 186 3.2 11.3 0.00 0.08 0.08 54 1009.3
20260506025354 21 183 4.8 11.3 0.00 0.08 0.08 54 1009.2
20260506024852 21 208 3.2 9.7 0.00 0.08 0.08 54 1009.1
20260506024617 20 134 1.6 9.7 0.00 0.08 0.08 54 1008.5
20260506024355 21 209 4.8 9.7 0.00 0.08 0.08 53 1009.1
20260506023855 21 196 4.8 11.3 0.00 0.08 0.08 53 1009.2
20260506023359 21 220 4.8 9.7 0.00 0.08 0.08 52 1009.3
20260506023114 21 158 1.6 9.7 0.00 0.08 0.08 53 1008.6
20260506022855 21 169 4.8 9.7 0.00 0.08 0.08 52 1009.3
20260506022338 21 164 3.2 9.7 0.00 0.08 0.08 52 1009.4
20260506021857 21 202 3.2 11.3 0.00 0.08 0.08 51 1009.4
20260506021620 21 155 1.6 11.3 0.00 0.08 0.08 51 1008.7
20260506021339 21 227 4.8 11.3 0.00 0.08 0.08 51 1009.4
20260506020900 21 189 1.6 9.7 0.00 0.08 0.08 51 1009.3
20260506020345 21 144 3.2 14.5 0.00 0.08 0.08 51 1009.4
20260506020120 21 206 3.2 14.5 0.00 0.08 0.08 50 1008.6
20260506015842 21 218 3.2 14.5 0.00 0.08 0.08 50 1009.4
20260506015402 22 188 6.4 12.9 0.00 0.08 0.08 50 1009.2
20260506014844 22 254 3.2 19.3 0.00 0.08 0.08 50 1009.1
20260506014610 21 179 3.2 19.3 0.00 0.08 0.08 50 1008.5
20260506013844 22 232 6.4 17.7 0.00 0.08 0.08 49 1009.1
20260506013406 22 214 9.7 17.7 0.00 0.08 0.08 49 1009.0
20260506013106 22 197 4.8 17.7 0.00 0.08 0.08 49 1008.4
20260506012844 22 177 6.4 12.9 0.00 0.08 0.08 49 1009.0
20260506012345 22 166 3.2 11.3 0.00 0.08 0.08 49 1008.9
20260506011848 22 131 4.8 12.9 0.00 0.08 0.08 49 1008.9
20260506011610 22 212 1.6 12.9 0.00 0.08 0.08 49 1008.2
20260506011349 22 187 3.2 12.9 0.00 0.08 0.08 49 1008.8